Location: Unspecified
(0.0000°N, 0.0000°E)
Time: 18:07:27
(UTC+00:00)

ITAMSAT 1 - Pass Details

Date: 16 December 2017
Orbit: 783 x 797 km, 98.8° (Epoch: 16 January)

Event Time Altitude Azimuth Distance (km) Brightness Sun altitude
Exits shadow 03:21:21 20° 176° (S) 1,748 9.7 -34.9°
Drops below altitude 10° 03:22:56 10° 181° (S) 2,344 10.4 -34.6°
Sets 03:25:17 0° 185° (S) 3,276 11.1 -34.1°
